Fort Campbell, KY

6:53 AM CST on December 09, 2016 (GMT -0600)
Campbell Army Air Field

Weather History for KHOP - December, 2013

Change the Weather History Date:

Monday, December 2, 2013

  Actual Average Record
Temperature  
Mean Temperature 52 °F -  
Max Temperature 57 °F 51 °F 71 °F (1998)
Min Temperature 46 °F 34 °F 19 °F (2005)
Degree Days  
Heating Degree Days 14    
Growing Degree Days 2 (Base 50)    
Moisture  
Dew Point 46 °F    
Average Humidity 80    
Maximum Humidity 100    
Minimum Humidity 63    
Precipitation  
Precipitation 0.00 in - - ()
Sea Level Pressure  
Sea Level Pressure 29.81 in    
Wind  
Wind Speed 4 mph (SE)    
Max Wind Speed 8 mph    
Max Gust Speed -    
Visibility 10 miles    
Events      
Averages and records for this station are not official NWS values.
T = Trace of Precipitation, MM = Missing Value Source: NWS Daily Summary

Daily Weather History Graph

Daily Weather History Graph

Search for Another Location

Airport or City:

Trip Planner

Search our weather history database for the weather conditions in past years. The results will help you decide how hot, cold, wet, or windy it might be!

Date:

Astronomy

Dec. 02, 2013 Rise Set
Actual Time 6:44 AM CST 4:34 PM CST
Civil Twilight 6:16 AM CST 5:02 PM CST
Nautical Twilight 5:44 AM CST 5:34 PM CST
Astronomical Twilight 5:13 AM CST 6:05 PM CST
Moon 6:10 AM CST (12/2) 4:35 PM CST (12/2)
Length of Visible Light 10h 46m
Length of Day
9h 49m
Waning Crescent, 0% of the Moon is Illuminated
Dec 2
Waning Crescent
Dec 2
New
Dec 9
First Quarter
Dec 17
Full
Dec 25
Last Quarter

Hourly Weather History & Observations

Time (CST) Temp. Dew Point Humidity Pressure Visibility Wind Dir Wind Speed Gust Speed Precip Events Conditions
12:58 AM 48.7 °F 39.2 °F 70% 29.93 in 10.0 mi South 3.5 mph - N/A   Overcast
1:49 AM 48.2 °F 39.2 °F 71% 29.90 in 10.0 mi South 3.5 mph - N/A   Overcast
1:58 AM 48.0 °F 39.6 °F 73% 29.91 in 10.0 mi SSE 4.6 mph - N/A   Overcast
2:58 AM 48.6 °F 39.9 °F 72% 29.90 in 10.0 mi South 3.5 mph - N/A   Overcast
3:58 AM 48.7 °F 39.9 °F 72% 29.89 in 10.0 mi SSW 2.3 mph - N/A   Overcast
4:58 AM 48.0 °F 40.8 °F 76% 29.88 in 10.0 mi SE 2.3 mph - N/A   Overcast
5:58 AM 47.1 °F 41.4 °F 80% 29.88 in 10.0 mi SE 2.3 mph - N/A   Overcast
6:58 AM 46.9 °F 41.2 °F 80% 29.87 in 10.0 mi SSE 4.6 mph - N/A   Overcast
7:58 AM 47.7 °F 41.2 °F 78% 29.87 in 10.0 mi ESE 3.5 mph - N/A   Overcast
8:25 AM 48.2 °F 42.8 °F 82% 29.85 in 10.0 mi South 4.6 mph - N/A   Overcast
8:26 AM 48.2 °F 42.8 °F 82% 29.85 in 10.0 mi SSE 5.8 mph - N/A   Overcast
8:58 AM 50.0 °F 42.8 °F 76% 29.86 in 10.0 mi SSE 3.5 mph - N/A   Overcast
9:58 AM 53.1 °F 43.9 °F 71% 29.86 in 10.0 mi Variable 1.2 mph - N/A   Overcast
10:58 AM 54.9 °F 44.1 °F 67% 29.84 in 10.0 mi SSE 6.9 mph - N/A   Overcast
11:58 AM 56.8 °F 44.4 °F 63% 29.81 in 10.0 mi SSE 6.9 mph - N/A   Overcast
12:04 PM 57.2 °F 44.6 °F 63% 29.79 in 10.0 mi SE 6.9 mph - N/A   Mostly Cloudy
12:58 PM 57.7 °F 45.5 °F 64% 29.78 in 10.0 mi SE 8.1 mph - N/A   Partly Cloudy
1:56 PM 57.2 °F 46.4 °F 67% 29.75 in 10.0 mi South 5.8 mph - N/A   Mostly Cloudy
2:58 PM 57.4 °F 46.0 °F 66% 29.75 in 10.0 mi South 5.8 mph - N/A   Mostly Cloudy
3:58 PM 57.0 °F 46.4 °F 68% 29.76 in 7.0 mi South 4.6 mph - N/A   Overcast
4:58 PM 56.3 °F 46.6 °F 70% 29.76 in 8.0 mi SSE 2.3 mph - N/A   Overcast
5:22 PM 55.4 °F 46.4 °F 72% 29.76 in 7.0 mi SE 2.3 mph - N/A   Overcast
5:58 PM 54.9 °F 47.1 °F 75% 29.77 in 8.0 mi SE 3.5 mph - N/A   Mostly Cloudy
6:14 PM 55.4 °F 48.2 °F 77% 29.76 in 9.0 mi ESE 3.5 mph - N/A   Mostly Cloudy
6:38 PM 55.4 °F 48.2 °F 77% 29.76 in 9.0 mi ESE 3.5 mph - N/A   Overcast
6:58 PM 54.7 °F 48.2 °F 79% 29.78 in 8.0 mi SE 3.5 mph - N/A   Mostly Cloudy
7:06 PM 53.6 °F 48.2 °F 82% 29.77 in 9.0 mi ESE 3.5 mph - N/A   Mostly Cloudy
7:39 PM 53.6 °F 48.2 °F 82% 29.77 in 8.0 mi SE 4.6 mph - N/A   Mostly Cloudy
7:43 PM 53.6 °F 48.2 °F 82% 29.77 in 8.0 mi SE 4.6 mph - N/A   Scattered Clouds
7:58 PM 52.5 °F 49.3 °F 89% 29.78 in 10.0 mi SSE 5.8 mph - N/A   Scattered Clouds
8:58 PM 52.7 °F 50.7 °F 93% 29.79 in 10.0 mi SSE 5.8 mph - N/A   Overcast
9:42 PM 51.8 °F 51.8 °F 100% 29.79 in 10.0 mi SE 3.5 mph - N/A   Overcast
9:58 PM 52.3 °F 51.8 °F 98% 29.80 in 10.0 mi ENE 1.2 mph - N/A   Overcast
10:17 PM 51.8 °F 51.8 °F 100% 29.79 in 10.0 mi NW 1.2 mph - N/A   Overcast
10:41 PM 51.8 °F 51.8 °F 100% 29.79 in 10.0 mi SE 2.3 mph - N/A   Mostly Cloudy
10:42 PM 51.8 °F 51.8 °F 100% 29.79 in 10.0 mi SE 2.3 mph - N/A   Mostly Cloudy
10:58 PM 50.7 °F 50.7 °F 100% 29.80 in 10.0 mi East 3.5 mph - N/A   Mostly Cloudy
11:14 PM 50.0 °F 50.0 °F 100% 29.78 in 10.0 mi SE 4.6 mph - N/A   Scattered Clouds
11:58 PM 48.9 °F 48.9 °F 100% 29.77 in 9.0 mi ESE 4.6 mph - N/A   Clear